HULIANWANG DIGUI-70

导读 | 豆包AI

“HULIANWANG DIGUI-70”是中国发射的人造卫星,于2025年8月17日升空。该卫星大概率服务于互联网星座部署,借助卫星互联网技术,有望弥补地面网络覆盖盲区,为偏远地区、海洋空域等提供宽带通信服务,助力全球网络互联互通,也将推动中国天地一体化信息网络建设进程。

基本信息
目录编号:
65230
目录名称:
HULIANWANG DIGUI-70
国际标识:
2025-178C
轨道中心:
EARTH
卫星名称:
HULIANWANG DIGUI-70
卫星全名:
HULIANWANG DIGUI-70
卫星状态:
在轨 (已飞行209 天)
发射日期:
2025-08-17 UTC
国别 :
中国 (CN)
星等 :
--
轨道信息
数据来源 国际轨道数据 AOE轨道数据
星历时间 2026-03-13T22:56:24+0800
10小时前
查看轨道信息
2026-03-10T11:00:00+0800
3天前
查看轨道信息
半长轴 7546.025km 7546.024km
偏心率 0.000205 0.0002062
轨道倾角 86.491° 86.493°
近地点辐角 75.588° 89.766°
升交点赤经 45.666° 46.848°
平近点角 284.548° 164.122°
近地点 1166.341km 1166.331km
远地点 1169.435km 1169.443km
周期 108.727分钟 108.727分钟
每日圈数 13.244191 13.244193
详细信息
使用方式:
暂无
2D轨道图
3D轨道图
轨道高度分析图
轨道倾角分析图
轨道综合分析图
查看轨道综合分析图